Regional Weather Roundup
Issued by NWS Upton, NY

Current Version | Previous Version | Text Only | Print | Product List | Glossary Off
Versions: 1 2 3 4 5 6 7 8 9 10 11 12 13 14 15 16 17 18 19 20 21 22 23 24 25 26 27 28 29 30 31 32 33 34 35 36 37 38 39 40 41 42 43 44 45 46 47 48 49 50
000 ASUS41 KOKX 290604 RWROKX REGIONAL WEATHER ROUNDUP NATIONAL WEATHER SERVICE NEW YORK NY 200 AM EDT SAT AUG 29 2015 NOTE: "FAIR" INDICATES FEW OR NO CLOUDS BELOW 12,000 FEET WITH NO SIGNIFICANT WEATHER AND/OR OBSTRUCTIONS TO VISIBILITY. NYZ071-072-176-178-NJZ106-104-290700- NEW YORK CITY METRO AREA CITY SKY/WX TMP DP RH WIND PRES REMARKS CENTRAL PARK FAIR 70 52 52 CALM 30.21F LAGUARDIA APRT FAIR 72 57 59 CALM 30.18F KENNEDY INTL FAIR 70 62 76 W6 30.19F NEWARK/LIBERTY FAIR 69 60 73 CALM 30.19S BRNX BOT. GARD N/A 64 54 68 CALM 30.18F TETERBORO FAIR 64 53 67 NW3 30.18F $$ NYZ177-179-078>081-290700- LONG ISLAND NEW YORK CITY SKY/WX TMP DP RH WIND PRES REMARKS FARMINGDALE FAIR 65 59 81 CALM 30.18F ISLIP FAIR 63 57 81 CALM 30.17F SHIRLEY FAIR 61 58 90 CALM 30.18F WESTHAMPTON FAIR 55 51 86 CALM 30.20F MONTAUK POINT N/A 71 62 73 W5 30.19F $$ NYZ052-065-067-290700- HUDSON VALLEY CITY SKY/WX TMP DP RH WIND PRES REMARKS WHITE PLAINS FAIR 61 56 83 NW5 30.18F NEWBURGH NOT AVBL MONTGOMERY FAIR 55 53 93 CALM 30.20S POUGHKEEPSIE FAIR 58 55 90 CALM 30.19S ALBANY MOCLDY 58 53 84 CALM 30.19F $$ NJZ001-105-106-008-010-013-015-019>022-104-290700- NEW JERSEY CITY SKY/WX TMP DP RH WIND PRES REMARKS NEWARK/LIBERTY FAIR 69 60 73 CALM 30.19S TETERBORO FAIR 64 53 67 NW3 30.18F CALDWELL FAIR 59 54 83 CALM 30.20F MORRISTOWN N/A 52 48 87 CALM 30.20F FOG SOMERVILLE FAIR 56 54 93 CALM 30.18F SUSSEX FAIR 53 51 93 CALM 30.21F ANDOVER N/A 54 53 97 CALM 30.22S TRENTON FAIR 61 56 83 CALM 30.19F MILLVILLE FAIR 58 57 97 CALM 30.20F ATLANTIC CITY FAIR 62 57 83 CALM 30.20S WRIGHTSTOWN FAIR 58 57 97 NE2 30.17F TOMS RIVER FAIR N/A N/A N/A CALM 30.20F BELMAR FAIR 63 54 72 CALM 30.19F $$ PAZ047>061-062-071-290700- EASTERN PENNSYLVANIA CITY SKY/WX TMP DP RH WIND PRES REMARKS PHILADELPHIA FAIR 69 60 73 SW6 30.20F ALLENTOWN FAIR 57 55 93 NW3 30.21S SCRANTON FAIR 58 51 78 E7 30.21F $$ CTZ002-004>006-009-010-012-RIZ004-006-007-MAZ004-011-015-290700- SOUTHERN NEW ENGLAND IN CT CITY SKY/WX TMP DP RH WIND PRES REMARKS BRADLEY INTL FAIR 58 55 90 CALM 30.18S HARTFORD FAIR 62 59 90 CALM 30.18S DANBURY FAIR 55 51 86 CALM 30.21F WTRBRY/OXFORD FAIR 55 46 71 CALM 30.21F BRIDGEPORT FAIR 65 56 72 CALM 30.18F MERIDEN FAIR 58 55 90 CALM 30.19S NEW HAVEN FAIR 59 56 89 N3 30.18F CHESTER NOT AVBL GROTON FAIR 61 60 97 CALM 30.17F WILLIMANTIC FAIR 57 54 89 CALM 30.19S IN RI CITY SKY/WX TMP DP RH WIND PRES REMARKS PROVIDENCE FAIR 63 56 78 W6 30.18F BLOCK ISLAND FAIR 66 64 94 W6 30.18F WESTERLY FAIR 59 56 89 CALM 30.18F IN MA CITY SKY/WX TMP DP RH WIND PRES REMARKS BOSTON FAIR 66 58 75 SW5 30.16F WORCESTER FAIR 61 52 72 W9 30.20S WESTFIELD FAIR 55 53 93 CALM 30.18F PROVINCETOWN FAIR 63 55 77 SW3 30.16F NANTUCKET FAIR 64 62 93 SW6 30.18F $$ ANZ330-335-338-340-345-350-353-355-290700- COASTAL MARINE OBSERVATIONS STATION/POSITION TIME SKY/WX TEMP WIND PRES VSBY WAVE AIR SEA DIR/SP/G HT/PER (UTC) (F) (DEG/KT/KT) (MB) (MI) (FT/S) NY HARB ENTRANCE 0450 73 76 260/ 10/ 10 1022.3 3/11 4S FIRE IS NOT AVBL 20S FIRE ISLAND 0450 73 75 240/ 8/ 8 1022.5 3/11 GREAT SOUTH BAY NOT AVBL 23SW MTP 0550 73 72 270/ 10/ 10 1021.8 3/10 HUDSON CANYON NOT AVBL KINGS POINT NOT AVBL EXECUTION ROCKS 0500 72 10/ 2/ 4 N/A CENTRAL LI SOUND NOT AVBL EASTERN LI SOUND 0500 70 70 280/ 6/ 6 N/A ROBBINS REEF NOT AVBL $$ >>>>>>>>>>>>>>>>>>>>>>>>>>>> KEY <<<<<<<<<<<<<<<<<<<<<<<<<<< > < > SKY/WX - SKY CONDITION/PRESENT WEATHER < > TMP - TEMPERATURE IN FAHRENHEIT < > DP - DEWPOINT IN FAHRENHEIT < > RH - RELATIVE HUMIDITY IN PERCENT < > WIND - DIRECTION AND SPEED IN MPH < > PRES - MEAN SEA LEVEL PRESSURE IN INCHES OF HG < > WCI - WIND CHILL INDEX < > VSB - VISIBILITY IN MILES < > HX - HEAT INDEX < > TC - TEMPERATURE IN CELSIUS < > VRB - VARIABLE WIND DIRECTION < > < >>>>>>>>>>>>>>>>>>>>>>>>>>>> KEY <<<<<<<<<<<<<<<<<<<<<<<<<<<

USA.gov is the U.S. government's official web portal to all federal, state and local government web resources and services.